Regional Weather Roundup
Issued by NWS

Home | Current Version | Previous Version | Graphics & Text | Print | Product List | Glossary On
Versions: 1 2 3 4 5 6 7 8 9 10 11 12 13 14 15 16 17 18 19 20 21 22 23 24 25 26 27 28 29 30 31 32 33 34 35 36 37 38 39 40 41 42 43 44 45 46 47 48 49 50
000
ASUS43 KMPX 162310
RWRMN
WEATHER ROUNDUP FOR MINNESOTA
NATIONAL WEATHER SERVICE TWIN CITIES/CHANHASSEN MN
500 PM CST TUE JAN 16 2018


NOTE: "FAIR" INDICATES FEW OR NO CLOUDS BELOW 12,000 FEET WITH NO
SIGNIFICANT WEATHER AND/OR OBSTRUCTIONS TO VISIBILITY. N/A MEANS
CURRENT SKY AND/OR WEATHER CONDITIONS ARE NOT AVAILABLE.

MNZ060>063-068>070-170000-
   Twin Cities Metro

CITY           SKY/WX    TMP DP  RH WIND       PRES   REMARKS
TWIN CITIES    FAIR       5  -3  69 W7        30.62F WCI  -7
ST PAUL        FAIR       6  -3  66 W8        30.64S WCI  -7
CRYSTAL        FAIR       3  -7  63 W6        30.61F WCI  -8
BLAINE         CLEAR      7  -2  66 W8        30.60F WCI  -6
LAKEVILLE      FAIR       0  -6  78 W5        30.62F WCI -10
EDEN PRAIRIE   FAIR       3  -5  69 SW6       30.61F WCI  -8
SOUTH ST PAUL  FAIR       6  -3  66 W7        30.62S WCI  -6
LAKE ELMO      FAIR       7   0  72 W6        30.61S WCI  -3
$$
MNZ001>005-007-008-013>017-022>024-027-028-170000-
   Northwest Minnesota

CITY           SKY/WX    TMP DP  RH WIND       PRES   REMARKS
BEMIDJI        FAIR       6 -11  45 SW7       30.47F WCI  -6
HALLOCK        FAIR       1  -4  78 S20       30.43F WCI -20
ROSEAU         FAIR       3  -6  66 SW17      30.41F WCI -17
WARROAD        FAIR       3  -8  60 SW15G21   30.40F WCI -15
THIEF RVR FALL MOCLDY    -1  -8  72 SW13      30.48F WCI -19
CROOKSTON      FAIR       1  -4  78 S18       30.52F WCI -19
FOSSTON        FAIR      -2  -9  71 S15       30.49F WCI -22
DETROIT LAKES  FAIR       1  -8  66 S6        30.52F WCI -10
MOORHEAD       FAIR       3  -6  66 S9        30.56F WCI -11
PARK RAPIDS    FAIR       6  -6  57 SW7       30.49F WCI  -6
MAHNOMEN       FAIR       1  -9  64 S12       30.50F WCI -16
$$
MNZ006-009>011-018-025>026-170000-
   North Central Minnesota

CITY           SKY/WX    TMP DP  RH WIND       PRES   REMARKS
BAUDETTE       FAIR       4  -8  57 SW12      30.40F WCI -12
FLAG ISLAND    FAIR       3  -6  66 S12       30.36F WCI -13
INTL FALLS     FAIR       5  -8  55 W9        30.43F WCI  -9
WASKISH        FAIR       3  -6  66 SW6       30.45F WCI  -8
BIG FORK       FAIR       3  -6  66 S6        30.46F WCI  -8
LONGVILLE      FAIR       9  -2  61 SW5       30.50F WCI   0
GRAND RAPIDS   FAIR       5  -3  69 VRB3      30.49F
CRANE LAKE     FAIR       7  -2  66 S5          N/A  WCI  -2
ORR            MOCLDY     7  -6  56 SW5       30.41F WCI  -2
COOK           MOCLDY     7   1  78 SW3       30.44F
WALKER         FAIR      10  -4  55 SW6       30.48F WCI   0
$$
MNZ012-019>021-037-170000-
   Northeast Minnesota

CITY           SKY/WX    TMP DP  RH WIND       PRES   REMARKS
DULUTH         FAIR       8   0  69 W9        30.46S WCI  -5
ELY            FAIR       5   0  78 W5        30.42F WCI  -4
HIBBING        FAIR       4  -2  76 W3        30.46F
EVELETH        FAIR       5  -3  71 W6        30.46F WCI  -6
DULUTH HARBOR  FAIR      12   3  67 SW6       30.54S WCI   3
TWO HARBORS    FAIR      14   3  62 W7        30.45F WCI   4
SILVER BAY     FAIR      12   3  67 W6        30.43F WCI   3
GRAND MARAIS     N/A     15   4  61 W7        30.45F WCI   5
G MARAIS ARPRT CLOUDY     7  -4  61 W6        30.33F WCI  -3
$$
MNZ029>031-032-039>041-046>048-054>057-064-170000-
   West Central Minnesota

CITY           SKY/WX    TMP DP  RH WIND       PRES   REMARKS
FERGUS FALLS   FAIR       1  -8  66 S7        30.61F WCI -11
WHEATON        CLOUDY     7  -2  66 S5        30.61F WCI  -2
MORRIS         CLOUDY     3  -2  78 CALM      30.59S
ALEXANDRIA     FAIR       1  -6  72 W6        30.56F WCI -10
ELBOW LAKE     FAIR      -1  -7  77 SW5       30.58S HAZE    WCI -11
WADENA         FAIR       1  -8  66 SW5       30.53F WCI  -8
GLENWOOD       FAIR       0  -6  78 W7        30.57F WCI -13
APPLETON       CLEAR      7  -2  66 CALM      30.61F
BENSON         CLEAR      3  -4  72 CALM      30.61F
ORTONVILLE     CLOUDY     7  -2  66 S5        30.59F WCI  -2
MADISON        CLEAR      7   0  72 S5        30.61F WCI  -2
WILLMAR        FAIR       3  -2  78 W5        30.63S WCI  -6
$$
MNZ033>034-036-042>043-049>051-058-059-170000-
   Central Minnesota

CITY           SKY/WX    TMP DP  RH WIND       PRES   REMARKS
ST CLOUD       FAIR       3  -4  72 W5        30.59S WCI  -6
SAUK CENTRE      N/A      4  -3  72 W7        30.58S WCI  -8
PAYNESVILLE    FAIR       4  -2  74 W8        30.59S WCI  -9
AITKIN         FAIR       5  -6  61 SW5       30.52S WCI  -4
PINE RIVER     FAIR       9  -4  56 SW5       30.53F WCI   0
BRAINERD       FAIR       6  -5  60 SW9       30.54S WCI  -8
STAPLES        FAIR       0  -8  71 W5        30.54F WCI -10
LONG PRAIRIE   FAIR       5  -4  66 SW3       30.56F
LITTLE FALLS   FAIR       7  -8  51 CALM      30.57F
LITCHFIELD     FAIR       5   0  78 W5        30.61S WCI  -4
BUFFALO        FAIR       3  -4  71 SW3       30.62F
MAPLE LAKE     FAIR       5  -1  76 MISG      30.61S
HUTCHINSON     FAIR       3  -2  78 W7        30.62S WCI  -9
$$
MNZ037-044-045-052-053-170000-
   East Central Minnesota

CITY           SKY/WX    TMP DP  RH WIND       PRES   REMARKS
PRINCETON      FAIR       3  -4  72 W3        30.59S
MORA           FAIR       7  -2  66 SW5       30.58S WCI  -2
CAMBRIDGE        N/A      5  -6  61 CALM      30.60S
RUSH CITY      FAIR       4  -4  68 SW5       30.58F WCI  -5
MOOSE LAKE     FAIR      10   0  61 W3        30.51S
HINCKLEY       FAIR       9   0  66 W6        30.56S WCI  -1
CLOQUET        FAIR       9   0  66 SW5         N/A  WCI   0
MCGREGOR       MOCLDY     9   1  72 SW5       30.52F WCI   0
$$
MNZ071>073-080-081-089-090-097-098-170000-
   Southwest Minnesota

CITY           SKY/WX    TMP DP  RH WIND       PRES   REMARKS
MONTEVIDEO     CLEAR      7  -4  61 CALM      30.62F
GRANITE FALLS  CLEAR      5  -1  74 CALM      30.63F
CANBY          CLEAR     11   2  68 SW6       30.61F WCI   1
MARSHALL       CLEAR      8  -1  66 CALM      30.61F
REDWOOD FALLS  CLEAR      2  -4  76 W6        30.63F WCI  -9
OLIVIA         CLEAR      5  -2  72 W3        30.61F
PIPESTONE      CLEAR      3   0  85 W6        30.57F WCI  -8
WINDOM         CLEAR      7  -9  47 W6        30.60F WCI  -3
WORTHINGTON    CLEAR      5  -1  76 W9        30.60F WCI  -9
JACKSON        CLEAR      5   1  85 W8        30.60F WCI  -8
SLAYTON        CLEAR      5   0  79 SW6       30.59F WCI  -6
$$
MNZ065>067-074>077-082>085-091>093-170000-
   South Central Minnesota

CITY           SKY/WX    TMP DP  RH WIND       PRES   REMARKS
MANKATO        FAIR       2  -4  76 W8        30.64S WCI -12
NEW ULM        CLEAR      1  -6  71 W7        30.64S WCI -11
ST JAMES       CLEAR      1  -2  85 W7        30.65S WCI -11
FAIRMONT       CLEAR      4  -3  73 NW7       30.63F WCI  -8
GLENCOE        FAIR       3  -2  78 CALM      30.62S
FARIBAULT      FAIR       1  -4  78 W5        30.62S WCI  -8
OWATONNA       FAIR       0  -6  78 W7        30.60F WCI -13
WASECA         FAIR       3  -4  72 W6        30.63F WCI  -8
ALBERT LEA     FAIR       1  -6  71 W3        30.60F
$$
MNZ078>079-086>088-094>096-170000-
   Southeast Minnesota

CITY           SKY/WX    TMP DP  RH WIND       PRES   REMARKS
ROCHESTER      FAIR       2  -2  83 W10       30.57F WCI -14
RED WING       FAIR       7  -4  61 W6        30.61F WCI  -3
STANTON        FAIR       2  -4  75 W6        30.61F WCI  -9
DODGE CENTER   FAIR       0  -4  85 W6        30.58S WCI -12
WINONA         FAIR      10   3  72 NW7       30.61S WCI   0
AUSTIN         CLOUDY     1  -4  78 NW9       30.59F WCI -14
PRESTON        FAIR       1  -4  78 W7        30.58S WCI -11
$$
ABBREVIATIONS USED IN REMARKS
   TC - TEMPERATURES IN CELSIUS
  WCI - WIND CHILL INDEX
   HX - HEAT INDEX
  VSB - VISIBILITY
$$




USA.gov is the U.S. government's official web portal to all federal, state and local government web resources and services.